Weather reports worldwide

Advertisment
F16-A, Netherlands (6206): temperature & dewpoint: 07.12.2019 05:00:00 - 13.12.2019 05:00:00 (CET)F16-A, Netherlands (6206): wind speed & gusts: 07.12.2019 05:00:00 - 13.12.2019 05:00:00 (CET)F16-A, Netherlands (6206): wind direction: 07.12.2019 05:00:00 - 13.12.2019 05:00:00 (CET)F16-A, Netherlands (6206): reduced air pressure: 07.12.2019 05:00:00 - 13.12.2019 05:00:00 (CET)F16-A, Netherlands (6206): visibility: 07.12.2019 05:00:00 - 13.12.2019 05:00:00 (CET)
Date & Time tt [°C] td [°C] ff [km/h] ff [kn] fx [km/h] fx [kn] dd ppp [hPa] vv [km]
13.12.2019 05:00:00 7,5 7,2 80 43 83 45 SSE 969,9 2,8
13.12.2019 04:00:00 6,2 5,9 81 44 86 47 SSE 969,5 6
13.12.2019 03:00:00 5,1 4,8 81 44 83 45 SSE 970,8 6
13.12.2019 02:00:00 5,5 4,7 65 35 83 45 SSE 972,2 8
13.12.2019 01:00:00 6,1 5,2 76 41 79 43 SSE 974,1 6
13.12.2019 00:00:00 6,5 4,4 78 42 83 45 SSE 975,7 10
12.12.2019 23:00:00 6,8 4,9 74 40 83 45 SSE 977,4 10
12.12.2019 22:00:00 6,3 5,5 83 45 86 47 S 979,1 9
12.12.2019 21:00:00 6,6 4,8 80 43 79 43 SSE 980,9 10
12.12.2019 20:00:00 5,9 5,1 74 40 76 41 SSE 982,5 6
12.12.2019 19:00:00 6,6 3,7 68 37 72 39 SSE 984,0 10
12.12.2019 18:00:00 7,2 3,3 70 38 68 37 SSE 985,7 10
12.12.2019 17:00:00 7,6 2,9 67 36 68 37 S 987,4 10
12.12.2019 16:00:00 7,8 3,7 65 35 68 37 S 988,9 10
12.12.2019 15:00:00 7,7 1,4 52 28 54 29 S 990,3 10
12.12.2019 14:00:00 7,5 0,4 50 27 54 29 S 991,8 10
12.12.2019 13:00:00 7,1 1,0 52 28 50 27 SSW 993,4 10
12.12.2019 12:00:00 6,8 0,3 44 24 50 27 - 994,6 10
12.12.2019 11:00:00 6,6 0,1 41 22 40 21 - 995,6 10
12.12.2019 10:00:00 6,7 1,7 34 18 36 19 SW 996,1 10
12.12.2019 09:00:00 6,9 2,0 31 17 32 18 SW 996,4 10
12.12.2019 08:00:00 6,9 1,2 31 17 32 18 SW 996,5 10
12.12.2019 07:00:00 7,0 0,9 29 16 32 18 WSW 996,8 10
12.12.2019 06:00:00 7,1 1,8 22 12 36 19 WSW 996,8 10
12.12.2019 05:00:00 7,3 2,2 29 16 29 16 W 997,1 10
12.12.2019 04:00:00 6,3 2,8 29 16 32 18 WSW 997,5 10
12.12.2019 03:00:00 7,0 2,9 22 12 22 12 W 997,6 10
12.12.2019 02:00:00 7,0 3,8 21 11 22 12 WSW 997,7 10
12.12.2019 01:00:00 6,9 4,1 21 11 29 16 W 998,0 10
12.12.2019 00:00:00 8,2 2,8 22 12 25 14 SW 998,6 10
11.12.2019 23:00:00 8,2 3,9 28 15 29 16 SW 998,8 10
11.12.2019 22:00:00 8,3 3,4 24 13 32 18 SW 999,2 10
11.12.2019 21:00:00 8,3 3,8 37 20 40 21 SSW 999,6 10
11.12.2019 20:00:00 8,6 3,5 41 22 43 23 - 1000,0 10
11.12.2019 19:00:00 8,4 4,2 41 22 43 23 - 1000,5 10
11.12.2019 18:00:00 8,2 3,6 42 23 43 23 SSW 1000,6 10
11.12.2019 17:00:00 8,0 3,6 39 21 40 21 - 1000,8 10
11.12.2019 16:00:00 8,0 2,6 39 21 40 21 - 1001,1 10
11.12.2019 15:00:00 7,8 3,5 37 20 40 21 - 1001,4 10
11.12.2019 14:00:00 7,9 3,0 44 24 43 23 SSW 1002,0 10
11.12.2019 13:00:00 7,6 3,9 37 20 40 21 SSW 1002,9 10
11.12.2019 12:00:00 7,6 4,0 34 18 32 18 SW 1003,4 10
11.12.2019 11:00:00 8,0 4,0 35 19 32 18 SW 1003,9 10
11.12.2019 10:00:00 8,1 3,7 29 16 29 16 SW 1004,1 10
11.12.2019 09:00:00 8,3 3,4 31 17 32 18 WSW 1004,0 10
11.12.2019 08:00:00 8,2 3,7 37 20 40 21 WSW 1003,8 10
11.12.2019 07:00:00 8,4 4,0 39 21 40 21 WSW 1003,7 10
11.12.2019 06:00:00 8,3 3,7 41 22 43 23 WSW 1003,5 10
11.12.2019 05:00:00 8,6 3,9 42 23 43 23 WSW 1003,2 10
11.12.2019 04:00:00 8,9 3,8 44 24 47 25 WSW 1003,0 10
11.12.2019 03:00:00 9,0 3,2 48 26 50 27 WSW 1002,4 10
11.12.2019 02:00:00 9,3 5,5 42 23 47 25 WSW 1001,4 10
11.12.2019 01:00:00 9,3 6,9 46 25 50 27 WSW 1001,0 10
11.12.2019 00:00:00 9,2 7,0 52 28 94 51 WSW 1000,2 6
10.12.2019 23:00:00 9,8 8,7 96 52 101 54 SSW 998,9 7
10.12.2019 22:00:00 10,0 8,3 98 53 104 56 SSW 999,6 6
10.12.2019 21:00:00 9,6 7,5 98 53 108 58 SSW 1000,5 7
10.12.2019 20:00:00 9,4 7,0 98 53 104 56 SSW 1001,3 8
10.12.2019 19:00:00 9,3 7,0 102 55 104 56 S 1002,6 9
10.12.2019 18:00:00 8,8 7,3 98 53 101 54 S 1003,7 8
10.12.2019 17:00:00 8,1 7,6 89 48 97 53 S 1005,5 5
10.12.2019 16:00:00 8,0 6,0 89 48 90 49 S 1007,0 7
10.12.2019 15:00:00 9,1 6,0 85 46 86 47 S 1009,3 10
10.12.2019 14:00:00 9,2 5,8 78 42 79 43 S 1011,2 10
10.12.2019 13:00:00 9,2 4,7 72 39 76 41 SSW 1013,0 10
10.12.2019 12:00:00 8,6 3,7 72 39 76 41 SSW 1015,1 10
10.12.2019 11:00:00 8,3 3,4 70 38 72 39 SSW 1016,6 10
10.12.2019 10:00:00 7,8 2,8 61 33 61 33 SSW 1017,7 10
10.12.2019 09:00:00 7,3 1,8 54 29 58 31 SSW 1018,5 10
10.12.2019 08:00:00 7,5 1,8 41 22 43 23 - 1019,0 10
10.12.2019 07:00:00 7,6 2,0 31 17 32 18 SW 1019,5 10
10.12.2019 06:00:00 7,8 1,5 18 10 22 12 WSW 1020,0 10
10.12.2019 05:00:00 7,8 0,6 18 10 25 14 W 1020,2 10
10.12.2019 04:00:00 7,5 1,0 13 7 18 10 W 1020,5 10
10.12.2019 03:00:00 7,7 0,0 26 14 32 18 WNW 1020,5 10
10.12.2019 02:00:00 7,5 0,3 31 17 40 21 NW 1019,9 10
10.12.2019 01:00:00 7,7 -2,2 35 19 47 25 NW 1019,5 10
10.12.2019 00:00:00 7,8 0,4 39 21 58 31 NW 1018,3 10
09.12.2019 23:00:00 7,7 -4,4 52 28 61 33 NW 1017,5 10
09.12.2019 22:00:00 7,9 -1,3 59 32 68 37 NW 1016,7 10
09.12.2019 21:00:00 7,8 -2,4 61 33 68 37 NW 1015,6 10
09.12.2019 20:00:00 7,8 -1,8 68 37 72 39 NNW 1013,9 10
09.12.2019 19:00:00 7,6 0,2 63 34 72 39 NW 1012,3 10
09.12.2019 18:00:00 8,0 -1,0 67 36 79 43 NW 1010,4 10
09.12.2019 17:00:00 7,9 0,5 67 36 76 41 NW 1008,8 10
09.12.2019 16:00:00 7,9 2,2 70 38 79 43 NNW 1007,0 10
09.12.2019 15:00:00 8,7 -0,7 67 36 72 39 NW 1004,5 10
09.12.2019 14:00:00 7,8 1,6 68 37 83 45 NNW 1002,3 10
09.12.2019 13:00:00 8,6 3,2 76 41 79 43 NNW 1000,3 10
09.12.2019 12:00:00 7,7 3,2 63 34 79 43 NNW 997,5 5
09.12.2019 11:00:00 8,0 4,4 59 32 58 31 NNW 995,3 10
09.12.2019 10:00:00 8,5 4,7 37 20 36 19 WNW 992,9 10
09.12.2019 09:00:00 8,0 3,6 35 19 47 25 WNW 991,0 10
09.12.2019 08:00:00 8,7 5,1 34 18 36 19 W 989,8 10
09.12.2019 07:00:00 8,4 5,1 34 18 36 19 W 988,5 10
09.12.2019 06:00:00 7,6 4,8 37 20 43 23 WSW 988,3 4,7
09.12.2019 05:00:00 8,1 4,9 48 26 50 27 SW 987,6 10
09.12.2019 04:00:00 8,1 4,4 52 28 54 29 SW 987,2 10
09.12.2019 03:00:00 8,3 4,3 55 30 54 29 SW 987,6 10
09.12.2019 02:00:00 8,5 4,3 54 29 58 31 SW 987,6 10
09.12.2019 01:00:00 8,3 3,5 55 30 58 31 SW 987,6 10
09.12.2019 00:00:00 8,4 3,6 55 30 61 33 SW 987,6 10
08.12.2019 23:00:00 8,5 3,7 59 32 61 33 SW 987,8 10
08.12.2019 22:00:00 8,6 3,1 61 33 61 33 WSW 987,9 10
08.12.2019 21:00:00 8,8 3,9 61 33 65 35 WSW 988,4 10
08.12.2019 20:00:00 9,2 2,9 61 33 65 35 WSW 988,4 10
08.12.2019 19:00:00 9,3 3,5 61 33 68 37 SW 989,0 10
08.12.2019 18:00:00 9,5 3,8 67 36 72 39 SW 989,2 10
08.12.2019 17:00:00 9,5 4,1 67 36 68 37 SW 989,3 10
08.12.2019 16:00:00 9,4 4,3 61 33 65 35 WSW 990,2 10
08.12.2019 15:00:00 9,4 4,1 63 34 65 35 WSW 990,6 10
08.12.2019 14:00:00 9,5 4,8 59 32 65 35 WSW 991,0 10
08.12.2019 13:00:00 9,8 5,1 55 30 61 33 WSW 991,2 10
08.12.2019 12:00:00 10,0 5,4 55 30 58 31 WSW 991,3 10
08.12.2019 11:00:00 10,5 6,3 50 27 54 29 WSW 991,1 10
08.12.2019 10:00:00 10,5 8,0 52 28 58 31 WSW 990,4 10
08.12.2019 09:00:00 10,1 8,7 61 33 72 39 SW 989,7 9
08.12.2019 08:00:00 10,0 9,5 70 38 83 45 SW 989,3 5
08.12.2019 07:00:00 10,2 9,2 81 44 94 51 - 990,1 9
08.12.2019 06:00:00 10,7 9,0 89 48 94 51 - 990,9 3,4
08.12.2019 05:00:00 9,8 9,5 81 44 90 49 - 992,3 2,2
08.12.2019 04:00:00 9,3 8,8 81 44 86 47 - 993,9 2,9
08.12.2019 03:00:00 10,0 8,2 74 40 86 47 - 996,1 10
08.12.2019 02:00:00 9,7 7,7 74 40 79 43 - 997,6 10
08.12.2019 01:00:00 9,4 7,1 65 35 76 41 - 999,8 10
08.12.2019 00:00:00 9,6 7,1 63 34 68 37 S 1001,2 10
07.12.2019 23:00:00 9,5 7,2 59 32 65 35 - 1002,5 10
07.12.2019 22:00:00 9,6 7,0 55 30 58 31 SW 1004,1 10
07.12.2019 21:00:00 9,6 6,4 50 27 54 29 SW 1005,3 10
07.12.2019 20:00:00 9,4 6,6 48 26 47 25 SW 1006,5 10
07.12.2019 19:00:00 9,4 7,0 42 23 43 23 SW 1007,4 10
07.12.2019 18:00:00 9,2 7,1 39 21 40 21 SW 1007,8 10
07.12.2019 17:00:00 9,4 7,3 31 17 36 19 WSW 1008,2 10
07.12.2019 16:00:00 9,5 7,2 31 17 32 18 WSW 1008,1 10
07.12.2019 15:00:00 9,6 7,3 37 20 40 21 W 1007,7 10
07.12.2019 14:00:00 9,7 7,4 35 19 36 19 W 1008,0 10
07.12.2019 13:00:00 9,7 7,2 37 20 36 19 WSW 1007,7 10
07.12.2019 12:00:00 9,9 7,5 31 17 32 18 W 1007,9 10
07.12.2019 11:00:00 9,8 7,7 34 18 32 18 W 1007,8 10
07.12.2019 10:00:00 9,6 7,0 35 19 36 19 W 1007,2 10
07.12.2019 09:00:00 9,6 7,3 31 17 36 19 W 1006,5 10
07.12.2019 08:00:00 9,7 7,0 37 20 40 21 W 1006,0 10
07.12.2019 07:00:00 9,7 7,4 37 20 40 21 W 1004,4 10
07.12.2019 06:00:00 9,8 7,5 39 21 40 21 W 1003,7 10
07.12.2019 05:00:00 9,9 7,5 37 20 40 21 W 1003,0 10

tt = temperature
td = dewpoint
ff = wind speed
fx = gusts
dd = wind direction
ppp = reduced air pressure
vv = visibility

Next stations